Location: Newark
(51.3318°N, 0.0053°E)
Time: 02:06:53
(UTC+00:00)

Envisat - Pass Details

Date: 25 January 2022
Orbit: 764 x 765 km, 98.2° (Epoch: 28 May)

Event Time Altitude Azimuth Distance (km) Brightness Sun altitude
Rises 04:54:30 0° 15° (NNE) 3,243 6.5 -26.8°
Reaches altitude 10° 04:56:50 10° 18° (NNE) 2,313 5.7 -26.4°
Maximum altitude 05:01:56 71° 103° (ESE) 811 3.2 -25.6°
Drops below altitude 10° 05:06:59 10° 188° (S) 2,296 5.4 -24.8°
Sets 05:09:17 0° 190° (S) 3,218 6.1 -24.5°
